User: anonymous
Location: Skalnate Pleso
(49.1889°N, 20.2450°E)
Time: 22:43:54
(UTC+02:00)
Language:

Iridium 45 - Orbit

View from above orbital plane
View from above orbital plane
View from above satellite
View from above satellite

Ground track
Ground track

The orbit data is extracted from the following two-line orbital elements,

1 25104U 97082A   14108.43643993  .00000554  00000-0  18803-3 0  7145
2 25104 087.0307 019.3784 0002736 106.8635 305.5523 14.35008581854711
Epoch (UTC): 18 April 2014 10:28:28
Eccentricity: 0.0002736
inclination: 87.0307°
perigee height: 773 km
apogee height: 777 km
right ascension of ascending node: 19.3784°
argument of perigee: 106.8635°
revolutions per day: 14.35008581
mean anomaly at epoch: 305.5523°
orbit number at epoch: 85471

The dashed part of the orbit path shows where the satellite is in the earth's shadow,  

DLR